{"data":{"norad_id":58328,"intl_designator":"2023-174CA","name":"FLOCK 4Q-13","alt_names":[],"object_type":"PAYLOAD","status":"ACTIVE","operator":null,"country":"US","launch_date":"2023-11-11","launch_site_code":"AFWTR","launch_vehicle":null,"mission":null,"orbit_class":"UNKNOWN","rcs_meters":null,"size_class":null,"mass_kg":null,"dimensions":null,"purposes":["earth_obs"],"wikipedia_slug":null,"has_3d_model":false,"image_url":null,"decayed_at":null,"tle_current":{"epoch":"2026-05-25T05:16:55.265376Z","epoch_age_seconds":53138,"freshness":"FRESH","line1":"1 58328U 23174CA  26145.22008409  .00022363  00000+0  39232-3 0  9993","line2":"2 58328  97.3998 235.3823 0005669 215.8834 144.2037 15.50548170142112","mean_motion":15.5054817,"eccentricity":0.0005669,"inclination_deg":97.3998,"raan_deg":235.3823,"arg_perigee_deg":215.8834,"mean_anomaly_deg":144.2037,"bstar":0.00039232,"rev_number":14211,"period_min":92.870381447098,"perigee_km":411.27340251998,"apogee_km":418.97560241147,"semimajor_km":6793.2615024657,"source":"CELESTRAK","updated_at":"2026-05-25T13:38:13.301780Z"}}}